Temp
72 72 73 74 75 75 74 74 75 73 75 76 75 75 75 74 73 72 72 70 70 70 70 69 68 68 67 67 66 67 67 68 66 64 63 64 62 62 65 64 65 65 68 66 65 62 60 58 59 64 66 65 64 64 66 67 67 66 65 66 67 67 66
74 74 75 75 74 75 74 74 74 74 74 74 75 73 74 75 73 72 72 71 70 69 69 69 68 67 67 66 66 65 65 65 66 66 65 63 63 62 62 62 64 65 66 66 66 65 60 59 59 61 61 64 63 64 65 66 66 65 66 66 66 66 67
72 73 73 73 73 73 73 73 73 72 72 73 73 74 73 75 74 73 72 72 71 70 69 68 69 69 68 66 65 65 65 65 65 66 65 65 64 64 64 64 63 63 63 63 63 63 63 63 59 59 62 61 59 62 65 65 65 66 66 66 65 66 67
72 71 71 71 72 72 72 72 72 71 70 69 70 72 73 73 74 74 73 72 71 70 69 69 68 67 67 66 66 66 65 65 65 64 64 65 64 63 64 64 64 64 62 61 62 63 63 61 60 60 62 64 63 61 63 66 66 68 68 66 65 65 66
72 71 70 70 71 71 71 71 72 72 70 69 68 67 69 71 71 70 73 72 70 68 68 69 69 68 67 66 66 65 64 65 65 64 64 64 64 64 65 66 66 66 65 64 65 64 62 62 62 61 61 63 63 64 67 65 67 68 67 66 67 65 66
73 72 72 71 72 71 72 71 71 71 69 68 68 67 68 70 68 68 69 69 70 69 68 69 69 68 67 65 66 66 66 64 64 65 63 64 64 64 64 66 66 67 66 66 66 64 64 64 62 60 62 64 60 61 64 65 63 68 66 64 68 67 66
72 72 72 72 72 72 72 71 71 70 68 68 68 68 68 68 67 68 67 66 67 68 67 67 69 69 68 66 66 65 65 65 65 65 64 65 64 65 66 65 65 67 67 67 66 66 64 63 61 60 61 61 60 60 62 62 66 64 64 65 68 69 68
72 72 72 72 72 72 72 71 71 71 68 67 68 68 67 66 66 66 67 67 68 68 69 69 69 68 68 67 66 66 65 65 65 64 64 64 64 64 64 65 65 66 67 67 66 66 66 64 63 62 60 58 59 59 59 62 64 66 65 67 69 70 69
72 72 72 72 72 72 71 71 70 69 68 67 69 68 67 66 65 66 66 66 66 65 68 68 67 67 67 65 65 65 64 65 64 64 63 64 64 64 64 65 64 65 67 67 68 68 68 65 64 63 63 62 59 57 59 59 61 62 67 65 67 71 71
71 71 71 71 72 72 71 70 68 68 68 68 68 68 67 67 66 65 65 65 66 67 67 66 66 67 66 66 65 65 64 65 65 64 64 64 64 64 64 65 65 66 67 68 69 69 69 68 67 65 64 63 61 58 58 57 59 60 65 69 66 69 72
70 71 71 71 71 70 69 69 68 66 66 67 68 68 68 67 66 66 65 66 65 66 66 66 67 66 66 65 65 64 65 65 64 63 63 64 63 64 64 64 65 66 67 68 68 69 69 68 67 67 65 63 62 60 59 60 60 63 62 66 69 67 70
70 70 71 71 71 70 69 68 67 66 66 67 66 66 66 65 65 65 66 66 64 64 67 65 65 66 66 64 64 64 64 64 62 62 63 64 64 64 64 64 64 65 67 67 68 68 68 68 67 67 65 67 67 66 61 58 57 61 64 62 66 71 69
71 70 70 70 70 70 69 68 68 66 65 66 65 65 65 65 66 65 65 64 65 65 65 66 66 66 65 64 64 63 63 64 63 62 63 64 66 65 64 64 65 66 66 67 68 68 68 69 69 68 67 68 67 66 60 61 60 60 63 63 64 67 71
69 70 70 70 69 69 69 68 68 66 66 65 65 64 64 65 66 64 64 66 65 65 64 65 66 66 65 64 63 64 64 63 63 63 63 64 65 65 64 65 65 67 68 67 68 68 68 69 70 69 69 66 65 66 66 64 62 60 62 65 66 68 71
69 69 68 69 68 68 68 67 67 67 65 66 66 65 65 65 64 65 65 65 65 65 65 65 66 65 64 63 64 65 64 63 64 63 63 63 64 65 65 65 67 68 69 69 69 70 70 69 70 70 65 66 64 64 67 65 64 61 60 63 64 67 69
68 68 68 68 68 67 67 67 67 66 65 65 66 65 65 65 65 65 65 64 62 64 64 65 65 65 64 64 65 64 64 64 64 63 63 63 63 64 64 64 67 69 70 69 68 69 69 70 69 64 62 63 62 64 66 68 66 62 62 62 65 65 67
66 67 67 68 67 67 67 66 67 65 65 64 64 64 65 65 65 64 64 65 65 65 64 64 64 65 65 65 64 64 64 63 64 64 65 64 64 64 62 63 64 68 69 68 68 67 68 68 62 63 63 63 62 65 63 65 67 66 65 63 65 68 68
65 65 66 66 66 67 67 67 66 65 64 64 64 64 64 64 64 64 64 65 64 64 65 64 65 65 65 65 65 65 65 64 64 65 63 64 63 63 64 65 68 69 69 68 66 66 68 64 64 63 64 64 64 66 66 66 66 68 65 64 64 68 68
63 63 64 64 65 66 66 66 66 65 64 64 64 64 64 64 64 64 64 65 65 64 64 65 65 65 66 66 66 66 65 65 65 65 65 66 66 67 67 67 65 65 64 63 66 65 65 65 64 63 65 65 66 67 66 66 65 66 67 66 65 65 69
63 63 63 63 64 65 65 65 66 65 64 64 64 63 64 64 63 64 64 63 63 64 63 62 62 64 66 66 65 65 65 65 65 64 65 65 66 67 66 65 62 62 62 63 64 62 64 65 64 62 64 63 66 65 64 64 63 62 63 65 66 66 67
63 63 63 63 63 63 63 63 63 64 64 63 62 63 63 63 63 62 62 63 62 61 58 56 55 56 61 65 64 64 65 65 65 65 65 66 67 65 64 65 63 64 63 64 64 64 64 64 66 64 63 64 66 65 63 62 62 61 61 64 64 63 65
63 63 63 62 62 61 61 60 61 61 62 62 62 62 63 63 63 63 63 61 58 57 55 53 50 50 52 57 63 64 65 66 67 66 66 67 66 65 65 65 65 64 65 61 60 61 63 64 67 65 65 65 65 64 63 63 61 60 58 58 60 61 62
62 62 61 61 60 60 59 59 58 58 58 59 60 60 60 60 60 58 57 57 56 55 53 51 47 44 46 50 55 63 65 66 68 67 63 62 64 64 64 62 61 57 54 55 54 52 52 55 60 66 65 64 63 63 62 61 60 58 59 58 58 59 59
62 61 60 60 60 59 58 57 57 56 56 56 56 57 57 58 57 56 55 54 53 52 50 47 43 42 43 44 52 61 67 67 66 63 63 62 62 62 62 62 61 59 58 54 50 46 46 48 47 46 47 51 56 63 61 58 59 60 58 59 59 59 57
61 60 60 59 59 58 57 56 55 55 55 54 54 54 54 54 55 55 54 53 51 50 48 44 41 43 43 44 47 62 66 65 65 64 63 63 62 62 62 61 61 63 63 62 59 55 50 46 45 45 46 46 45 44 48 58 60 59 59 59 58 59 61
61 60 60 59 58 57 56 55 54 53 53 54 54 53 52 52 52 52 52 51 49 48 46 42 41 43 45 49 51 59 63 63 62 61 61 62 63 62 62 62 62 63 64 64 63 60 58 54 49 48 50 50 49 48 45 44 48 62 62 59 59 59 61
60 60 59 59 58 57 55 54 53 53 52 53 52 52 51 50 50 50 50 50 49 47 44 42 41 43 44 46 49 54 62 61 60 59 57 57 57 58 61 61 61 60 59 56 54 60 61 60 59 62 63 60 57 54 49 47 48 53 58 62 61 60 61
59 59 59 58 57 56 54 54 53 52 51 50 50 50 50 49 49 49 49 50 49 47 44 41 41 42 43 45 48 52 60 59 59 57 55 54 53 53 56 62 60 58 57 55 51 48 61 65 65 62 58 56 54 51 50 49 51 57 62 63 60 57 56
59 59 58 57 56 55 54 53 52 52 51 50 51 51 50 50 49 48 48 48 48 46 45 40 40 41 42 43 50 58 58 57 56 56 55 53 52 51 51 54 56 56 54 53 47 44 50 61 63 62 58 57 56 53 50 46 43 47 53 56 56 54 52
58 57 57 55 54 54 53 53 54 54 52 51 49 49 49 49 49 48 47 47 47 46 45 41 40 40 41 42 51 57 57 55 54 53 53 53 51 50 49 49 51 51 51 50 44 44 48 55 61 62 62 60 59 57 55 54 46 43 43 43 43 43 44
57 56 55 54 54 54 54 54 54 55 53 52 50 50 51 50 49 49 47 46 47 46 45 43 40 40 41 41 49 57 55 54 53 52 51 51 50 49 49 47 48 46 46 46 43 44 46 56 59 59 61 60 58 57 56 57 57 51 44 44 44 45 45
57 56 55 54 54 53 54 54 55 55 55 54 52 52 51 50 49 49 48 47 47 46 45 44 40 40 40 40 48 56 54 52 50 50 50 49 49 48 48 46 44 43 44 43 41 44 45 53 56 58 58 57 55 56 56 58 58 57 58 58 58 59 57
57 56 55 55 54 53 54 54 54 54 54 55 53 52 51 50 48 48 49 48 47 46 45 45 42 40 40 40 42 51 53 52 49 48 48 48 47 46 46 45 44 40 40 41 41 41 43 45 52 53 54 54 55 55 57 56 56 59 59 58 58 59 58
56 56 57 56 55 55 54 53 53 53 52 53 53 52 51 50 49 48 49 48 47 47 46 45 44 40 40 40 40 44 49 49 50 49 48 46 46 44 44 43 43 41 40 41 41 41 42 43 45 49 48 48 49 51 54 57 56 54 58 57 57 57 58
57 56 56 56 55 55 55 55 54 53 53 53 52 51 51 50 50 48 48 48 47 47 47 44 44 42 40 40 40 40 44 45 47 49 47 46 45 44 43 43 42 41 40 40 40 41 42 42 43 48 45 42 43 45 54 55 57 57 56 56 56 55 56
57 58 56 56 55 54 55 55 55 55 54 53 53 52 52 51 50 49 48 47 47 47 46 46 42 42 41 40 40 40 39 41 42 46 45 44 43 43 44 44 44 42 40 41 41 41 41 42 44 44 42 43 43 45 49 54 54 55 54 54 53 53 54
59 58 57 56 55 53 53 54 54 54 54 53 53 52 53 52 52 50 49 48 47 46 45 44 43 41 41 40 40 40 39 39 40 43 44 43 43 43 43 43 42 40 41 41 41 41 41 41 42 41 42 43 45 46 52 52 51 52 49 50 51 51 52
MSLP
1014.81 1014.69 1014.33 1014.13 1013.85 1013.77 1013.89 1013.89 1013.81 1013.89 1013.89 1013.73 1013.81 1013.89 1013.97 1014.13 1014.21 1014.29 1014.33 1014.49 1014.53 1014.41 1014.41 1014.53 1014.69 1014.73 1014.85 1014.97 1015.13 1015.21 1015.49 1015.65 1015.85 1016.21 1016.49 1016.65 1017.09 1017.33 1017.21 1017.73 1017.85 1018.01 1017.37 1017.17 1017.33 1017.97 1018.49 1019.17 1019.05 1018.57 1018.49 1018.81 1018.89 1018.93 1019.01 1019.01 1019.09 1019.25 1019.57 1019.61 1019.69 1019.77 1019.97
1014.41 1014.33 1014.01 1013.81 1013.89 1013.77 1013.97 1013.81 1013.81 1013.77 1013.77 1013.73 1013.61 1013.77 1013.81 1013.81 1013.97 1014.09 1014.09 1014.17 1014.29 1014.29 1014.21 1014.29 1014.41 1014.65 1014.69 1014.85 1015.01 1015.17 1015.29 1015.33 1015.37 1015.57 1016.01 1016.41 1016.69 1016.97 1017.29 1017.85 1017.73 1017.65 1017.41 1017.33 1017.37 1017.57 1018.29 1018.89 1018.93 1018.89 1018.97 1018.85 1019.01 1019.17 1019.13 1018.93 1018.97 1019.49 1019.41 1019.61 1019.45 1019.57 1019.77
1014.57 1014.41 1014.29 1014.29 1014.17 1013.97 1014.05 1013.93 1013.85 1013.81 1013.81 1013.77 1013.89 1013.69 1013.73 1013.57 1013.49 1013.57 1013.65 1013.81 1013.89 1014.01 1014.13 1014.13 1014.13 1014.29 1014.45 1014.61 1014.73 1014.85 1014.93 1015.13 1015.21 1015.33 1015.61 1015.89 1016.29 1016.65 1016.73 1016.97 1017.41 1017.57 1017.69 1017.77 1017.77 1017.81 1017.93 1017.93 1018.53 1018.65 1018.49 1018.97 1019.49 1019.17 1018.89 1018.93 1018.89 1019.09 1019.21 1019.45 1019.65 1019.61 1019.53
1014.73 1014.65 1014.69 1014.57 1014.33 1014.13 1014.09 1013.93 1013.85 1013.81 1013.93 1014.33 1014.21 1013.69 1013.37 1013.17 1013.09 1013.05 1013.17 1013.33 1013.45 1013.81 1013.93 1013.89 1013.93 1014.01 1014.17 1014.29 1014.45 1014.57 1014.77 1014.93 1015.13 1015.29 1015.45 1015.65 1015.97 1016.37 1016.77 1016.89 1016.93 1016.93 1017.25 1017.57 1017.61 1017.65 1017.77 1018.21 1018.49 1018.53 1018.41 1018.37 1018.69 1019.01 1018.73 1018.49 1018.61 1018.77 1018.97 1019.21 1019.65 1019.53 1019.25
1014.61 1014.69 1014.73 1014.73 1014.49 1014.41 1014.17 1014.01 1013.73 1013.69 1013.89 1013.97 1013.97 1013.85 1013.69 1013.45 1013.53 1013.37 1012.93 1012.93 1013.17 1013.65 1013.73 1013.57 1013.61 1013.69 1013.89 1014.05 1014.17 1014.37 1014.61 1014.77 1014.97 1015.33 1015.49 1015.65 1015.93 1016.05 1016.21 1016.25 1016.45 1016.53 1016.77 1016.93 1016.93 1017.13 1017.53 1017.69 1017.85 1018.17 1018.29 1018.21 1018.53 1018.53 1018.21 1018.49 1018.53 1018.65 1018.73 1018.85 1019.13 1019.53 1019.25
1014.41 1014.45 1014.49 1014.45 1014.25 1014.25 1014.09 1014.01 1013.93 1013.93 1013.97 1014.21 1014.05 1014.29 1014.33 1013.89 1014.01 1014.05 1013.53 1013.13 1013.01 1013.25 1013.41 1013.41 1013.37 1013.45 1013.69 1013.93 1013.93 1014.09 1014.21 1014.61 1014.89 1015.05 1015.37 1015.37 1015.53 1015.77 1015.97 1015.81 1015.97 1016.29 1016.53 1016.41 1016.53 1016.93 1017.09 1017.25 1017.61 1018.13 1018.01 1017.93 1018.73 1018.81 1018.33 1018.37 1018.77 1018.37 1018.57 1018.89 1018.73 1018.85 1019.41
1014.49 1014.45 1014.41 1014.37 1014.17 1014.09 1014.01 1014.01 1013.93 1013.93 1014.05 1014.05 1013.85 1013.85 1013.85 1013.77 1013.57 1013.61 1013.69 1013.61 1013.29 1013.17 1013.21 1013.29 1013.17 1013.13 1013.29 1013.61 1013.73 1013.89 1013.97 1014.09 1014.33 1014.65 1014.85 1015.01 1015.17 1015.45 1015.53 1015.81 1015.93 1016.05 1016.13 1016.13 1016.41 1016.57 1016.85 1017.13 1017.53 1017.69 1018.05 1018.37 1018.73 1019.05 1018.81 1018.85 1018.45 1018.81 1019.01 1018.89 1018.53 1018.53 1018.89
1014.53 1014.45 1014.37 1014.29 1014.25 1014.17 1014.01 1013.97 1013.85 1013.73 1013.85 1013.89 1013.69 1013.53 1013.53 1013.57 1013.65 1013.49 1013.17 1013.01 1012.97 1012.93 1012.85 1012.81 1012.85 1012.97 1013.05 1013.21 1013.41 1013.61 1013.77 1013.85 1013.97 1014.25 1014.61 1014.85 1015.13 1015.41 1015.49 1015.45 1015.73 1015.89 1015.85 1015.97 1016.13 1016.25 1016.25 1016.53 1016.81 1017.21 1017.57 1018.45 1018.97 1019.25 1019.21 1018.77 1018.49 1018.33 1018.41 1018.45 1018.29 1018.45 1018.49
1014.65 1014.49 1014.37 1014.17 1014.09 1014.05 1014.01 1013.97 1013.89 1013.77 1013.77 1013.73 1013.53 1013.49 1013.49 1013.45 1013.41 1013.21 1012.93 1013.05 1013.33 1013.37 1012.93 1012.81 1012.93 1013.01 1013.05 1013.21 1013.33 1013.45 1013.61 1013.65 1013.93 1014.29 1014.49 1014.73 1014.93 1015.13 1015.25 1015.29 1015.65 1015.85 1015.69 1015.73 1015.81 1015.81 1015.85 1016.17 1016.57 1016.85 1017.05 1017.85 1018.73 1019.41 1019.13 1019.21 1018.81 1018.65 1018.09 1018.57 1018.49 1018.13 1018.21
1014.97 1014.85 1014.69 1014.49 1014.25 1014.13 1014.05 1014.09 1014.09 1013.93 1013.81 1013.61 1013.49 1013.33 1013.21 1013.01 1013.13 1013.25 1013.09 1012.93 1012.85 1012.85 1012.77 1012.89 1013.05 1012.93 1013.01 1013.01 1013.13 1013.29 1013.49 1013.53 1013.77 1014.09 1014.53 1014.69 1014.77 1014.89 1015.01 1015.17 1015.41 1015.41 1015.41 1015.37 1015.45 1015.45 1015.53 1015.85 1016.21 1016.33 1016.77 1017.29 1017.93 1018.69 1018.97 1019.21 1018.73 1018.69 1018.41 1017.97 1018.41 1018.21 1017.89
1015.09 1014.85 1014.69 1014.61 1014.41 1014.37 1014.29 1014.13 1014.01 1013.89 1013.69 1013.49 1013.37 1013.21 1013.05 1012.93 1013.05 1013.13 1012.93 1012.85 1012.97 1012.85 1012.77 1012.73 1012.77 1012.81 1012.89 1013.01 1012.97 1013.13 1013.09 1013.25 1013.69 1014.01 1014.37 1014.49 1014.57 1014.65 1014.85 1015.05 1015.13 1015.17 1015.05 1015.17 1015.29 1015.25 1015.29 1015.45 1015.73 1016.05 1016.69 1017.29 1017.09 1017.65 1018.41 1018.29 1018.37 1017.81 1018.21 1017.89 1017.61 1018.13 1017.97
1015.17 1014.97 1014.73 1014.49 1014.37 1014.41 1014.33 1014.21 1014.13 1013.93 1013.61 1013.37 1013.25 1013.17 1013.09 1012.93 1012.97 1012.97 1012.85 1012.85 1013.01 1012.97 1012.57 1012.57 1012.73 1012.81 1012.73 1012.97 1012.97 1013.01 1013.09 1013.21 1013.57 1013.93 1014.13 1014.33 1014.57 1014.53 1014.69 1014.85 1014.89 1014.97 1014.89 1015.05 1015.09 1015.13 1015.17 1015.33 1015.53 1015.77 1016.17 1016.61 1016.61 1016.85 1017.89 1017.93 1018.41 1017.85 1017.85 1018.41 1017.81 1017.41 1017.81
1015.17 1015.05 1014.81 1014.57 1014.45 1014.41 1014.37 1014.29 1014.09 1013.93 1013.77 1013.49 1013.33 1013.17 1013.13 1012.93 1012.73 1012.77 1012.81 1012.97 1013.05 1012.97 1012.89 1012.69 1012.53 1012.61 1012.81 1012.89 1012.85 1012.97 1013.17 1013.29 1013.53 1013.73 1014.09 1014.17 1014.17 1014.33 1014.57 1014.65 1014.69 1014.77 1014.81 1014.97 1015.01 1015.01 1015.09 1015.09 1015.17 1015.41 1015.65 1015.93 1016.09 1016.45 1017.49 1017.57 1017.77 1017.97 1017.69 1017.85 1017.85 1017.69 1017.65
1015.33 1015.05 1014.85 1014.65 1014.57 1014.45 1014.33 1014.29 1014.13 1013.93 1013.69 1013.45 1013.21 1013.01 1012.81 1012.61 1012.45 1012.37 1012.29 1012.57 1012.77 1012.81 1012.81 1012.81 1012.77 1012.73 1012.85 1012.93 1013.01 1013.13 1013.37 1013.49 1013.69 1013.81 1013.77 1013.93 1014.05 1014.29 1014.53 1014.69 1014.65 1014.61 1014.61 1014.81 1014.81 1014.81 1014.85 1014.93 1015.01 1015.17 1015.33 1015.65 1016.01 1016.17 1016.65 1017.21 1017.57 1017.73 1017.69 1017.25 1017.41 1017.65 1017.57
1015.37 1015.21 1015.05 1014.81 1014.73 1014.65 1014.49 1014.37 1014.13 1013.93 1013.77 1013.41 1013.13 1013.05 1012.89 1012.69 1012.41 1012.05 1012.09 1012.37 1012.85 1013.05 1013.05 1013.05 1012.93 1012.89 1012.89 1013.01 1012.97 1012.97 1013.09 1013.41 1013.45 1013.69 1013.77 1013.97 1013.97 1014.05 1014.37 1014.65 1014.45 1014.37 1014.29 1014.45 1014.53 1014.57 1014.69 1014.85 1014.97 1015.13 1015.77 1016.09 1016.09 1016.17 1016.13 1016.81 1016.89 1017.33 1017.81 1017.45 1017.49 1017.33 1017.57
1015.61 1015.37 1015.13 1014.89 1014.77 1014.65 1014.57 1014.37 1014.13 1014.05 1013.81 1013.49 1013.29 1013.21 1013.05 1012.73 1012.33 1012.01 1012.05 1012.49 1013.29 1013.37 1013.41 1013.41 1013.33 1013.01 1013.01 1013.01 1012.93 1013.05 1013.13 1013.17 1013.25 1013.41 1013.61 1013.89 1014.05 1014.13 1014.41 1014.57 1014.17 1013.97 1014.05 1014.21 1014.33 1014.41 1014.41 1014.65 1014.89 1015.97 1016.45 1016.29 1016.01 1016.33 1016.41 1016.25 1016.49 1017.21 1017.45 1017.65 1017.33 1017.69 1017.73
1015.81 1015.57 1015.33 1015.05 1014.97 1014.81 1014.61 1014.45 1014.21 1014.13 1013.93 1013.73 1013.57 1013.21 1013.01 1012.73 1012.41 1012.37 1012.49 1012.57 1012.97 1013.33 1013.45 1013.49 1013.33 1013.21 1013.09 1013.09 1013.05 1013.09 1013.17 1013.21 1013.21 1013.29 1013.49 1013.77 1013.93 1014.13 1014.49 1014.77 1014.45 1013.81 1013.89 1014.13 1014.25 1014.45 1014.53 1014.85 1015.53 1015.49 1016.37 1016.37 1016.13 1016.37 1016.21 1016.21 1016.13 1016.45 1016.89 1017.45 1017.41 1017.49 1017.53
1016.17 1015.93 1015.65 1015.41 1015.29 1015.01 1014.81 1014.53 1014.33 1014.25 1013.97 1013.77 1013.57 1013.33 1013.09 1012.97 1012.93 1012.97 1012.89 1012.97 1013.41 1013.57 1013.65 1013.73 1013.57 1013.41 1013.25 1013.21 1013.13 1013.13 1013.13 1013.25 1013.33 1013.33 1013.61 1013.81 1014.05 1014.25 1014.25 1014.13 1013.65 1013.49 1013.73 1014.05 1014.25 1014.53 1014.61 1015.01 1015.17 1015.61 1016.21 1015.97 1015.97 1016.13 1016.21 1016.09 1016.13 1016.13 1016.61 1017.05 1017.21 1017.01 1017.21
1016.57 1016.41 1016.17 1015.93 1015.69 1015.37 1015.13 1014.85 1014.61 1014.37 1014.17 1013.97 1013.73 1013.57 1013.41 1013.41 1013.33 1013.33 1013.25 1013.17 1013.21 1013.53 1013.81 1013.69 1013.61 1013.57 1013.45 1013.25 1013.21 1013.17 1013.25 1013.29 1013.25 1013.25 1013.33 1013.41 1013.45 1013.41 1013.53 1013.61 1014.21 1014.45 1014.73 1014.85 1014.49 1014.57 1014.77 1014.89 1015.21 1015.61 1015.77 1015.77 1015.77 1015.77 1015.85 1015.89 1016.05 1016.05 1016.37 1016.69 1016.85 1017.05 1016.89
1016.89 1016.73 1016.49 1016.29 1016.01 1015.73 1015.49 1015.17 1014.89 1014.73 1014.49 1014.29 1014.05 1013.97 1013.85 1013.69 1013.73 1013.69 1013.81 1014.05 1014.01 1014.01 1014.05 1014.09 1014.01 1013.77 1013.61 1013.45 1013.41 1013.37 1013.37 1013.33 1013.37 1013.49 1013.45 1013.41 1013.37 1013.37 1013.65 1013.97 1014.13 1014.09 1014.17 1014.17 1014.73 1015.37 1015.37 1015.09 1015.17 1015.21 1015.73 1016.01 1015.81 1015.81 1015.89 1016.01 1016.17 1016.25 1016.49 1016.69 1016.77 1016.69 1016.89
1017.17 1017.01 1016.81 1016.65 1016.49 1016.33 1016.09 1015.85 1015.57 1015.21 1014.93 1014.77 1014.57 1014.33 1014.29 1014.17 1014.05 1014.21 1014.17 1014.09 1014.37 1014.65 1014.69 1014.77 1014.89 1014.65 1014.13 1013.61 1013.53 1013.57 1013.37 1013.29 1013.21 1013.21 1013.25 1013.17 1013.25 1013.53 1013.69 1013.89 1014.21 1014.21 1014.37 1014.45 1014.65 1014.81 1014.77 1015.13 1015.13 1015.41 1016.21 1016.21 1015.85 1015.81 1016.13 1016.13 1016.41 1016.61 1016.85 1016.85 1016.77 1016.89 1016.81
1017.37 1017.25 1017.17 1017.09 1016.97 1016.93 1016.81 1016.61 1016.33 1015.93 1015.57 1015.33 1015.13 1014.89 1014.65 1014.49 1014.53 1014.53 1014.53 1014.69 1014.93 1015.17 1015.25 1015.49 1015.65 1015.57 1014.89 1014.25 1013.77 1013.49 1013.33 1013.25 1013.17 1013.05 1013.09 1013.29 1013.57 1013.81 1013.93 1014.01 1014.09 1014.17 1014.33 1014.81 1014.85 1014.65 1014.61 1014.93 1015.01 1015.25 1015.45 1015.45 1015.57 1015.81 1016.09 1016.33 1016.53 1016.85 1017.13 1017.21 1017.45 1017.13 1017.09
1017.69 1017.61 1017.57 1017.49 1017.45 1017.45 1017.37 1017.17 1017.01 1016.81 1016.61 1016.29 1015.93 1015.65 1015.45 1015.37 1015.49 1015.69 1015.65 1015.57 1015.53 1015.65 1015.85 1016.01 1016.09 1015.37 1014.89 1014.97 1014.37 1013.69 1013.29 1013.17 1013.13 1013.25 1013.69 1013.77 1013.93 1013.97 1014.05 1014.13 1014.33 1014.85 1015.13 1014.85 1014.69 1014.73 1014.85 1014.81 1014.77 1014.77 1015.01 1015.29 1015.53 1015.73 1016.05 1016.33 1016.69 1017.21 1017.77 1017.53 1017.89 1017.85 1017.53
1018.01 1017.97 1017.97 1017.93 1017.89 1017.89 1017.85 1017.73 1017.61 1017.45 1017.29 1017.13 1016.89 1016.61 1016.29 1016.13 1016.29 1016.45 1016.45 1016.37 1016.37 1016.17 1016.29 1016.65 1016.33 1015.65 1014.97 1014.65 1014.33 1013.77 1013.37 1013.41 1013.57 1014.13 1014.41 1014.17 1014.13 1014.45 1014.45 1014.45 1014.61 1014.81 1015.45 1015.85 1015.57 1015.17 1015.05 1014.97 1015.13 1015.09 1015.29 1015.49 1015.57 1015.69 1016.05 1016.37 1016.61 1016.73 1017.37 1017.89 1017.85 1018.13 1017.93
1018.25 1018.21 1018.25 1018.29 1018.29 1018.29 1018.37 1018.29 1018.25 1018.09 1017.93 1017.73 1017.65 1017.49 1017.33 1017.21 1017.09 1017.01 1016.89 1016.85 1016.93 1016.73 1016.73 1016.85 1016.21 1015.61 1015.05 1014.65 1014.45 1014.05 1013.97 1014.09 1014.13 1014.21 1014.45 1014.61 1014.49 1014.61 1014.97 1015.05 1015.01 1015.17 1015.25 1016.01 1015.89 1015.21 1015.13 1015.13 1015.37 1015.61 1015.73 1015.77 1015.89 1016.13 1016.17 1016.17 1016.53 1017.05 1017.13 1017.61 1018.17 1018.61 1018.01
1018.57 1018.49 1018.57 1018.61 1018.65 1018.69 1018.73 1018.77 1018.77 1018.73 1018.57 1018.37 1018.25 1018.13 1018.13 1018.05 1018.01 1017.85 1017.69 1017.69 1017.69 1017.49 1017.25 1017.09 1016.69 1015.73 1015.17 1014.61 1014.45 1014.37 1014.49 1014.65 1014.89 1015.21 1015.45 1015.41 1015.29 1015.37 1015.33 1015.45 1015.61 1015.81 1016.17 1016.13 1015.53 1015.61 1015.93 1015.93 1015.81 1015.81 1015.89 1016.01 1016.25 1016.49 1016.57 1016.61 1016.45 1016.33 1016.65 1017.25 1017.93 1018.17 1017.49
1018.89 1018.93 1019.01 1019.01 1019.01 1019.05 1019.09 1019.17 1019.29 1019.29 1019.21 1018.97 1018.85 1018.77 1018.73 1018.73 1018.65 1018.49 1018.37 1018.29 1018.25 1018.05 1017.89 1017.93 1017.33 1016.13 1015.65 1015.29 1014.89 1014.81 1015.01 1015.21 1015.53 1015.89 1016.17 1016.25 1016.17 1016.05 1015.57 1015.45 1015.77 1016.29 1016.41 1016.33 1016.17 1015.93 1015.81 1015.77 1015.77 1015.89 1016.13 1016.57 1016.93 1016.93 1016.81 1016.93 1016.65 1016.41 1016.69 1017.65 1018.09 1017.69 1017.53
1019.29 1019.33 1019.41 1019.45 1019.45 1019.53 1019.57 1019.65 1019.65 1019.73 1019.73 1019.69 1019.57 1019.49 1019.45 1019.33 1019.33 1019.21 1018.97 1018.73 1018.65 1018.61 1018.77 1018.49 1017.61 1016.61 1016.13 1015.69 1015.57 1015.45 1015.61 1015.73 1015.97 1016.33 1016.61 1016.77 1016.85 1017.05 1016.61 1016.01 1016.21 1016.61 1016.69 1016.73 1016.97 1016.61 1015.77 1015.65 1015.81 1016.33 1016.89 1017.33 1017.65 1018.05 1017.93 1017.89 1017.65 1017.17 1017.17 1017.29 1017.53 1017.81 1018.01
1019.69 1019.77 1019.77 1019.85 1019.93 1019.97 1020.05 1020.09 1020.13 1020.17 1020.21 1020.25 1020.17 1020.01 1019.97 1019.85 1019.85 1019.85 1019.77 1019.45 1019.09 1019.09 1019.09 1018.89 1018.25 1017.41 1016.93 1016.41 1015.97 1015.97 1016.09 1016.25 1016.49 1016.65 1016.85 1017.09 1017.37 1017.65 1017.65 1017.25 1016.81 1017.01 1017.21 1017.13 1017.09 1016.13 1015.69 1015.89 1016.29 1016.61 1017.09 1017.37 1017.81 1018.25 1018.81 1019.13 1018.61 1017.97 1017.69 1017.85 1018.01 1018.17 1018.41
1020.25 1020.29 1020.33 1020.41 1020.49 1020.53 1020.49 1020.41 1020.29 1020.33 1020.45 1020.53 1020.57 1020.49 1020.49 1020.53 1020.45 1020.37 1020.29 1020.09 1019.93 1019.89 1019.57 1019.45 1018.81 1018.45 1018.05 1017.29 1016.65 1016.65 1016.73 1016.89 1017.17 1017.29 1017.49 1017.61 1017.89 1018.29 1018.45 1018.29 1017.85 1017.69 1017.45 1017.65 1017.53 1016.53 1016.21 1016.05 1016.53 1016.73 1016.89 1017.17 1017.57 1017.89 1018.49 1018.81 1018.81 1018.61 1018.53 1018.49 1018.53 1018.53 1018.61
1020.89 1020.93 1020.93 1021.01 1021.09 1021.09 1020.93 1020.81 1020.73 1020.65 1020.73 1020.81 1020.89 1020.97 1020.93 1020.93 1020.89 1020.85 1020.81 1020.81 1020.77 1020.49 1020.33 1020.21 1019.77 1019.41 1018.77 1018.17 1017.69 1017.57 1017.65 1017.61 1017.77 1017.93 1018.13 1018.25 1018.37 1018.69 1019.09 1019.05 1018.73 1018.49 1018.41 1018.41 1017.61 1017.09 1017.01 1016.73 1017.01 1017.17 1017.13 1017.37 1017.81 1018.05 1018.41 1018.57 1018.65 1018.85 1018.93 1018.89 1018.77 1018.73 1018.73
1021.29 1021.33 1021.41 1021.53 1021.57 1021.57 1021.37 1021.17 1021.05 1020.93 1020.89 1020.97 1021.25 1021.37 1021.33 1021.29 1021.41 1021.37 1021.45 1021.45 1021.25 1020.89 1020.89 1020.77 1020.53 1020.09 1019.57 1019.01 1018.41 1018.05 1018.09 1018.21 1018.49 1018.89 1019.05 1019.09 1018.97 1019.09 1019.29 1019.53 1019.61 1019.41 1019.21 1018.93 1018.33 1017.93 1017.61 1017.53 1017.89 1017.73 1017.77 1017.97 1018.29 1018.45 1018.53 1018.49 1018.49 1018.61 1018.69 1018.73 1018.81 1018.77 1018.89
1021.73 1021.69 1021.73 1021.85 1021.89 1021.97 1021.89 1021.77 1021.61 1021.49 1021.45 1021.37 1021.49 1021.65 1021.69 1021.77 1021.85 1021.93 1021.93 1021.81 1021.73 1021.77 1021.61 1021.41 1021.29 1020.85 1020.57 1020.21 1019.73 1019.21 1019.01 1019.01 1019.45 1019.69 1019.77 1020.01 1020.05 1019.97 1020.05 1020.01 1019.97 1019.93 1019.41 1019.13 1019.05 1018.85 1018.69 1018.61 1018.45 1018.69 1018.53 1018.73 1018.81 1018.97 1018.81 1018.69 1018.69 1018.65 1018.77 1018.81 1018.93 1019.01 1019.13
1022.09 1022.01 1022.01 1022.13 1022.21 1022.13 1022.09 1022.13 1022.09 1022.01 1022.05 1022.01 1021.97 1022.01 1022.05 1022.13 1022.21 1022.33 1022.33 1022.29 1022.25 1022.17 1022.21 1022.09 1021.85 1021.69 1021.45 1021.25 1020.97 1020.45 1020.17 1020.13 1020.09 1020.25 1020.49 1020.81 1020.93 1020.97 1020.97 1020.93 1020.85 1020.57 1020.09 1019.85 1019.73 1019.69 1019.65 1019.65 1019.53 1019.53 1019.69 1019.85 1019.85 1019.37 1018.93 1019.01 1019.09 1018.97 1018.93 1018.97 1019.05 1019.21 1019.37
1022.33 1022.41 1022.49 1022.45 1022.41 1022.33 1022.25 1022.17 1022.13 1022.17 1022.13 1022.17 1022.21 1022.29 1022.37 1022.37 1022.53 1022.77 1022.81 1022.77 1022.77 1022.73 1022.65 1022.69 1022.53 1022.29 1022.21 1022.05 1021.93 1021.69 1021.37 1021.33 1021.05 1020.85 1021.09 1021.41 1021.57 1021.65 1021.61 1021.53 1021.45 1021.25 1020.81 1020.65 1020.49 1020.37 1020.29 1020.21 1020.13 1020.05 1020.33 1020.13 1019.81 1019.45 1019.37 1019.37 1019.37 1019.41 1019.45 1019.45 1019.49 1019.65 1019.77
1022.61 1022.65 1022.73 1022.77 1022.77 1022.73 1022.61 1022.45 1022.37 1022.21 1022.17 1022.17 1022.21 1022.25 1022.29 1022.37 1022.53 1022.77 1023.01 1023.17 1023.29 1023.33 1023.29 1023.09 1023.13 1023.01 1022.85 1022.69 1022.57 1022.45 1022.37 1022.17 1021.89 1021.65 1021.85 1022.13 1022.33 1022.37 1022.13 1021.93 1021.93 1021.69 1021.41 1021.25 1021.09 1020.93 1020.81 1020.65 1020.57 1020.77 1020.53 1020.33 1020.17 1020.01 1019.77 1019.77 1019.85 1019.93 1020.01 1020.09 1020.17 1020.25 1020.17
1022.73 1022.85 1023.05 1023.13 1023.17 1023.21 1023.13 1022.97 1022.77 1022.61 1022.49 1022.49 1022.45 1022.41 1022.41 1022.45 1022.49 1022.65 1022.97 1023.29 1023.53 1023.73 1023.77 1023.73 1023.53 1023.49 1023.37 1023.21 1023.05 1022.97 1022.89 1022.77 1022.53 1022.53 1022.49 1022.69 1022.85 1022.77 1022.57 1022.45 1022.33 1022.09 1021.97 1021.81 1021.65 1021.49 1021.37 1021.29 1021.29 1021.13 1020.97 1020.81 1020.61 1020.41 1020.29 1020.33 1020.37 1020.49 1020.57 1020.65 1020.81 1020.93 1020.93
Wind_Speed
5 5 5 5 4 3 3 4 2 2 4 5 5 6 6 6 7 7 7 7 7 8 8 8 7 7 6 6 9 10 8 8 9 8 7 6 7 5 7 7 9 8 2 2 3 3 2 4 3 2 3 4 4 3 5 4 5 4 5 2 4 5 3
5 5 5 5 4 4 4 3 3 3 4 5 5 5 6 7 8 8 8 8 7 7 7 6 6 7 8 7 8 7 8 7 7 7 6 6 6 5 5 6 7 7 2 1 2 3 3 2 2 5 4 4 2 5 6 4 5 5 5 5 7 5 5
5 6 5 7 6 5 5 5 5 5 5 3 4 5 5 8 8 8 8 9 9 8 7 7 7 8 8 8 8 7 8 8 5 6 7 5 5 2 4 5 5 1 1 1 1 2 1 1 3 4 5 8 8 7 7 5 5 7 8 7 5 3 4
6 6 7 7 7 7 7 6 5 5 2 5 6 6 6 7 8 8 8 8 8 7 8 8 8 8 7 7 7 7 7 8 6 6 5 4 6 8 8 7 7 7 6 6 6 4 3 3 2 3 3 6 7 6 6 6 6 7 7 6 8 8 7
4 5 6 7 7 8 8 8 7 5 1 2 3 7 9 8 7 7 7 7 6 7 10 8 8 7 6 5 7 8 8 7 4 5 6 6 6 5 5 7 6 5 4 4 5 5 6 5 5 4 4 3 3 4 5 5 5 6 6 7 7 7 6
4 5 6 6 6 7 7 7 7 8 3 2 3 3 7 10 7 9 9 6 6 5 7 8 7 7 7 8 8 8 8 9 9 8 6 6 6 6 7 5 4 5 5 4 5 5 4 4 5 3 2 3 1 2 1 6 3 4 5 4 4 9 6
6 6 6 6 6 6 7 7 7 7 6 6 5 4 1 7 8 8 9 9 8 8 8 9 8 7 8 8 9 8 9 7 8 9 8 7 6 6 4 4 5 5 5 5 5 5 6 6 5 5 3 3 5 4 1 1 3 5 7 7 5 5 5
6 6 5 6 7 7 7 8 7 6 5 6 6 5 5 5 7 9 10 8 8 7 9 7 6 5 6 7 8 8 7 6 7 6 6 7 8 9 6 5 5 6 5 5 5 5 5 5 5 4 5 4 4 5 5 5 5 6 4 5 6 6 5
7 7 6 6 5 7 8 8 8 7 5 5 7 3 4 5 7 9 6 5 8 10 8 4 7 7 7 7 6 6 6 4 5 8 7 7 7 8 8 4 4 6 5 5 5 5 5 6 4 4 3 3 6 7 6 6 4 4 7 5 7 9 8
9 9 9 10 9 8 9 7 6 8 8 7 7 5 6 5 5 6 7 7 9 9 6 5 9 6 7 8 7 7 8 8 6 7 5 6 5 6 6 7 7 6 5 5 5 5 4 6 7 5 4 6 2 1 6 5 7 6 5 6 7 8 8
9 10 9 9 8 8 8 6 6 7 7 7 7 7 7 7 5 7 8 6 7 8 9 8 6 5 5 3 4 5 7 9 6 5 5 4 5 5 5 5 5 5 4 4 5 4 4 4 5 6 7 6 6 6 4 3 4 3 5 4 3 4 6
8 9 9 8 7 7 7 6 7 7 7 7 7 7 7 6 5 8 8 6 5 9 7 2 6 6 3 4 5 5 4 5 7 5 4 6 6 5 6 7 6 5 4 5 5 5 3 4 4 4 5 7 7 4 7 3 1 1 4 3 2 4 6
9 9 9 9 8 8 8 8 8 7 8 8 7 7 7 6 5 4 7 7 8 7 7 4 4 4 4 4 4 3 3 4 7 5 5 5 5 5 6 6 6 5 5 5 5 5 5 5 4 4 4 5 4 7 10 5 6 5 2 5 4 3 5
8 9 9 10 9 8 7 7 7 7 7 6 6 6 7 7 5 4 7 8 6 6 8 4 4 2 4 5 4 3 4 3 5 3 3 5 4 5 5 7 8 8 7 7 6 5 4 4 4 3 3 4 4 2 8 7 7 4 2 2 4 6 7
8 9 9 8 8 7 7 8 7 7 7 7 6 7 6 5 5 4 2 4 3 4 1 3 3 3 4 3 3 5 6 6 6 8 5 3 4 5 7 8 10 8 7 7 6 6 5 4 4 3 6 5 1 2 0 5 4 6 5 3 2 3 6
9 9 9 7 9 9 8 7 7 7 8 8 7 6 5 5 3 4 4 2 2 4 2 4 3 4 4 5 5 4 3 4 6 6 6 4 4 4 3 5 6 6 6 6 5 3 3 4 2 9 9 2 3 2 4 4 4 4 7 5 4 5 6
8 10 10 8 9 8 8 7 7 8 7 6 7 6 4 6 6 5 5 4 2 1 2 3 4 3 4 2 2 3 3 3 3 3 4 5 5 5 7 9 9 6 5 5 4 3 2 6 6 3 6 8 8 3 6 7 2 5 6 7 6 6 5
11 12 10 9 11 10 10 9 7 8 8 8 8 7 6 7 7 7 4 5 3 3 1 3 3 1 1 1 1 1 1 2 3 2 4 5 8 9 9 7 5 3 5 4 3 2 3 7 4 6 7 7 7 5 6 4 2 4 5 6 6 5 7
11 12 12 11 12 10 9 10 8 8 9 9 9 8 7 7 7 8 8 7 3 1 5 4 3 3 1 2 0 0 1 0 1 2 2 2 1 1 1 1 7 8 10 5 1 2 4 4 4 2 2 5 6 6 4 4 1 4 5 5 6 4 7
10 10 9 10 10 11 11 11 10 10 9 10 10 10 9 9 9 8 8 8 6 6 9 9 7 5 2 3 2 1 0 0 0 1 0 1 1 0 4 6 5 6 8 4 5 6 4 3 6 5 3 2 4 3 5 3 3 3 2 5 4 4 5
9 9 9 10 11 11 12 12 12 11 10 10 11 9 7 8 7 8 7 7 10 10 10 10 9 8 9 4 3 4 3 3 2 1 1 1 1 5 2 1 2 1 1 1 3 3 5 5 5 4 5 8 5 5 4 3 3 4 3 1 2 3 2
8 9 11 11 12 12 12 12 12 12 12 11 9 10 10 10 9 7 7 10 11 9 8 7 7 7 6 9 8 5 4 4 5 3 2 2 6 4 3 3 2 2 1 6 6 5 4 4 4 6 6 5 5 4 3 3 5 5 5 4 4 2 3
9 10 11 11 12 12 12 11 12 13 13 13 12 12 11 12 13 13 11 10 10 10 7 6 12 14 10 5 6 7 5 4 4 6 8 5 3 3 4 5 6 14 10 11 9 7 6 3 3 2 4 4 6 5 5 5 6 7 1 1 3 1 6
10 11 11 11 11 12 12 11 11 12 11 12 13 12 11 12 12 12 12 9 9 8 7 9 16 14 14 12 7 7 4 2 6 8 4 2 0 2 4 5 5 9 7 5 5 10 11 10 8 13 13 12 7 5 5 6 5 4 4 1 4 2 2
11 11 11 12 12 11 11 11 12 11 11 12 12 12 13 12 11 11 11 8 9 9 9 16 19 17 14 11 7 7 11 10 10 8 6 1 4 4 4 2 2 3 4 1 1 6 8 11 15 16 16 15 14 14 9 4 5 5 3 3 3 5 6
11 11 12 12 11 11 11 12 12 12 12 10 11 13 13 13 11 12 12 12 12 10 10 19 19 18 16 16 18 13 9 10 10 10 10 8 7 4 4 5 5 5 3 5 5 7 6 9 13 17 16 16 16 16 14 12 4 8 8 6 3 2 2
12 12 12 11 11 11 11 12 12 11 11 11 12 12 12 13 13 13 11 8 9 9 11 19 18 18 17 15 15 13 10 10 11 11 11 9 9 9 6 6 6 7 6 8 7 4 8 9 8 7 10 10 10 13 15 15 11 7 9 5 6 4 3
11 12 12 11 11 11 11 11 12 11 10 10 11 11 11 12 12 12 11 10 12 12 11 22 20 21 18 15 14 12 10 10 10 11 11 11 10 11 10 8 10 9 8 8 6 5 2 5 6 10 11 9 9 10 10 9 9 7 6 6 8 8 8
11 12 12 11 11 11 11 11 11 9 9 9 9 9 9 10 12 13 11 12 13 14 12 23 21 23 21 17 13 9 8 10 10 11 12 12 12 9 11 10 9 10 9 11 13 11 10 7 6 10 10 10 10 10 9 4 9 12 11 9 8 9 8
12 12 12 12 12 12 11 10 10 8 9 9 9 10 10 10 10 11 13 13 14 13 14 20 24 23 21 21 11 8 9 9 10 11 11 11 11 11 11 10 8 8 8 10 13 16 14 13 6 4 9 10 9 9 8 6 9 12 14 15 14 14 13
12 12 12 12 12 11 9 8 9 8 9 10 11 10 9 9 11 12 14 13 12 11 12 19 24 22 22 22 13 9 7 8 10 10 10 10 9 10 13 20 15 9 9 8 15 19 16 11 10 8 7 9 10 9 6 4 5 7 9 11 12 13 13
12 12 12 12 11 12 10 9 7 8 8 9 9 9 9 10 10 11 12 12 19 14 10 18 24 23 23 23 16 10 10 9 11 10 8 9 10 10 10 12 18 13 10 13 19 17 18 14 9 8 7 8 9 8 6 3 2 3 3 4 4 5 6
10 11 11 11 11 10 9 9 10 9 9 9 9 9 9 10 11 11 11 11 12 13 13 14 20 24 24 23 21 12 10 10 10 10 10 9 9 9 9 10 13 17 18 19 19 19 19 17 11 9 9 8 6 7 4 8 8 6 7 6 5 6 6
11 11 10 9 8 9 9 9 9 9 9 8 9 9 10 10 11 11 10 11 11 12 12 12 15 22 22 22 22 15 9 10 9 9 9 10 10 10 10 10 9 14 18 18 18 19 18 16 13 11 10 7 4 4 7 7 8 8 6 6 6 5 5
9 9 9 9 9 9 8 8 7 7 6 7 8 9 8 8 9 10 10 10 11 11 13 18 12 17 20 20 21 21 11 11 10 8 10 10 10 9 9 9 8 12 17 17 17 17 16 16 16 11 10 11 13 14 9 7 6 6 6 6 5 5 6
9 9 8 9 10 10 9 9 9 8 8 7 7 7 8 7 7 7 8 9 9 10 10 11 18 15 17 18 19 18 18 14 15 11 9 11 10 9 8 9 9 14 16 16 17 17 16 16 13 12 15 15 14 13 10 7 7 6 5 6 7 7 6
8 8 10 10 10 11 10 9 9 9 8 8 8 8 8 8 8 9 9 8 8 8 9 9 13 17 15 16 16 17 16 16 14 9 9 8 7 7 8 9 11 16 15 15 15 15 16 15 12 15 14 15 14 11 8 8 7 7 5 6 7 6 6
Wind_Direction
290 298 300 295 282 262 266 273 269 300 253 239 219 216 224 219 217 224 219 213 220 221 219 214 208 203 192 192 196 200 195 195 192 202 201 186 190 191 181 208 205 230 239 64 124 141 128 161 201 170 162 161 151 233 230 192 170 143 157 134 191 168 166
300 296 299 298 301 306 288 275 259 239 233 235 237 231 222 222 217 218 223 221 220 225 220 223 218 222 195 191 187 190 195 198 190 195 183 189 186 198 142 215 216 212 155 132 117 119 145 157 175 184 174 117 141 227 228 198 133 162 186 175 194 177 157
322 318 319 311 306 299 285 282 266 259 269 262 282 254 240 232 230 222 218 225 226 222 222 221 224 216 217 197 195 200 203 205 199 189 192 181 178 144 186 192 187 126 121 111 157 165 150 169 163 186 186 170 191 201 197 193 173 181 172 175 176 200 186
317 315 316 314 311 307 301 292 282 270 276 335 320 296 267 252 234 229 222 224 228 224 236 232 218 213 208 197 199 199 204 202 195 183 192 170 164 178 198 211 201 189 184 182 179 180 177 160 172 209 204 196 198 173 196 184 179 179 177 162 173 186 202
300 307 304 303 305 304 306 305 305 295 275 236 224 279 290 283 295 280 244 230 224 238 240 235 227 209 206 214 205 195 197 207 200 201 195 177 176 186 200 200 202 196 191 182 176 165 175 183 175 182 187 164 219 196 166 179 167 192 163 180 174 174 193
288 282 288 296 296 294 297 301 305 307 342 248 255 286 301 305 292 277 282 258 242 246 254 243 229 212 197 211 205 201 192 181 198 198 191 191 172 187 207 197 182 184 195 178 147 156 162 155 169 183 181 119 130 256 169 158 173 201 136 206 224 160 173
334 330 325 312 315 319 317 311 311 313 319 308 277 265 259 298 307 297 290 283 244 235 239 245 234 209 206 200 213 203 198 190 187 188 188 193 184 207 201 181 188 203 197 167 165 169 167 163 178 187 135 120 175 217 275 200 215 178 174 181 194 165 166
325 324 319 315 310 308 313 315 315 315 315 297 288 271 271 279 290 285 269 277 285 253 245 233 221 207 202 202 206 204 186 184 183 178 186 199 203 186 195 184 193 209 201 176 174 186 168 174 169 144 144 154 175 192 214 230 202 207 159 156 185 172 188
329 326 315 311 317 322 318 324 325 321 317 300 296 292 253 266 269 277 272 280 296 301 265 239 243 219 202 205 199 180 194 203 185 189 190 205 190 181 200 177 201 218 194 175 188 183 183 168 147 142 142 159 193 176 174 195 177 206 185 150 194 181 182
335 328 327 325 329 333 333 340 331 325 318 306 306 288 292 275 299 290 272 246 249 243 253 267 246 219 210 204 205 191 179 188 195 174 166 183 171 179 188 190 196 197 195 184 197 195 187 164 168 162 157 189 153 117 184 182 192 170 186 177 163 174 169
328 328 330 328 335 339 341 338 328 318 315 309 303 299 296 300 289 275 276 270 263 263 256 235 226 223 199 207 192 193 178 168 165 118 173 199 194 178 181 193 207 206 187 197 204 205 177 160 148 154 150 150 192 168 250 182 153 165 160 189 174 144 156
330 329 328 324 336 343 336 341 326 318 317 311 303 308 305 305 310 294 280 274 287 275 254 254 250 232 179 178 183 187 162 125 127 158 182 185 192 187 192 201 209 209 192 204 201 190 193 180 173 158 158 179 185 190 120 122 134 240 121 194 198 145 146
334 334 330 333 340 341 348 340 336 336 325 315 310 300 293 292 291 289 294 293 273 282 296 262 216 171 165 191 168 164 113 130 142 177 183 186 173 178 199 209 206 203 195 206 205 190 186 185 188 170 181 187 156 127 137 192 184 193 166 163 194 160 157
338 333 332 339 339 344 353 341 338 328 311 323 321 302 293 294 299 290 286 286 279 245 249 235 242 158 173 168 171 161 157 174 161 142 169 175 170 175 208 214 210 202 200 195 204 186 181 183 195 185 159 128 125 167 160 182 182 146 125 192 155 158 173
337 337 336 343 345 348 347 348 342 331 328 327 316 314 296 289 283 291 310 270 337 317 295 261 192 209 181 164 169 179 172 188 171 169 191 181 168 185 204 211 205 195 205 200 198 192 183 186 193 200 49 19 58 272 219 160 187 152 152 182 126 105 141
340 340 343 348 350 353 351 341 346 345 339 335 341 341 335 311 306 355 11 47 0 264 248 223 229 211 194 181 182 170 157 173 158 157 164 173 204 218 221 236 223 185 197 209 202 203 184 175 95 77 115 142 282 291 319 288 152 151 148 169 146 157 161
352 354 351 351 354 350 348 341 352 353 348 342 350 335 339 0 349 358 15 2 284 50 224 297 207 201 197 166 192 157 165 158 151 162 152 162 196 201 203 220 229 194 186 200 186 169 141 75 94 148 97 169 210 156 193 263 215 145 156 149 164 165 183
5 359 355 2 2 359 1 357 5 1 359 360 352 347 4 16 14 1 6 54 31 333 266 233 280 223 134 103 225 170 174 157 149 156 118 179 192 214 209 223 214 192 175 176 160 113 111 110 145 119 172 184 180 169 197 224 200 139 143 156 161 173 168
10 5 7 8 2 3 6 6 10 13 8 2 2 2 11 20 16 24 31 49 101 14 341 342 19 345 250 166 257 152 119 167 142 138 133 113 112 50 13 4 18 15 23 3 258 106 52 128 120 115 167 171 180 179 178 165 133 137 155 162 168 173 161
12 10 7 6 3 3 6 5 9 16 8 9 13 12 19 30 24 33 41 34 23 36 33 18 0 351 349 51 17 8 29 15 343 37 31 169 134 131 57 68 116 132 181 190 63 86 187 175 130 186 135 210 191 147 144 158 157 111 110 175 187 155 149
14 12 11 14 12 10 10 10 8 8 8 12 15 15 20 27 25 30 25 46 41 34 32 22 3 1 351 359 36 351 334 333 279 215 214 150 105 80 105 91 111 158 93 213 123 160 163 135 162 162 139 203 193 154 158 140 113 83 27 49 135 138 129
18 19 19 20 20 19 18 15 12 11 12 12 16 16 20 21 15 34 42 44 43 34 32 25 13 350 346 348 346 339 333 330 329 299 330 31 50 69 103 79 72 24 97 68 140 218 192 188 175 162 166 155 142 141 125 86 90 71 78 83 357 14 70
23 22 23 24 25 24 22 20 20 19 15 16 18 18 23 32 33 29 33 33 36 33 25 19 352 353 11 0 322 319 329 325 322 57 47 10 12 68 89 75 56 51 62 117 144 160 160 131 293 135 148 125 110 114 107 96 86 78 332 60 36 314 130
28 30 28 28 29 27 25 23 22 21 20 21 20 21 23 34 40 34 26 26 26 27 29 5 352 1 2 354 341 322 331 5 55 79 102 254 154 39 63 62 79 92 73 33 105 120 132 139 113 75 63 64 63 99 123 95 103 123 130 65 142 264 66
31 33 33 32 32 32 29 27 24 23 22 25 25 27 27 26 33 33 27 20 19 21 21 0 359 359 3 8 11 18 40 41 38 33 30 353 325 35 33 47 38 93 75 1 320 79 95 100 92 90 86 78 70 58 56 97 135 114 136 99 94 209 199
32 34 34 33 33 33 32 33 30 24 24 26 30 32 29 28 26 25 30 25 16 10 17 5 356 6 15 47 53 56 47 48 48 44 46 47 49 36 40 33 12 36 108 169 102 73 41 75 87 96 94 79 60 48 37 28 27 155 150 145 187 248 122
36 37 36 34 35 33 33 35 34 31 28 29 32 30 28 29 26 24 26 20 15 10 26 1 355 15 16 23 50 56 52 54 57 52 42 39 39 25 41 83 77 59 26 26 22 63 130 115 126 87 64 57 53 41 32 4 14 88 106 138 184 143 52
37 39 38 36 37 37 35 36 37 35 31 27 29 30 26 28 26 23 15 17 25 22 18 6 5 16 14 20 36 56 59 57 60 54 49 41 39 29 15 49 59 47 29 24 20 332 159 147 101 88 81 65 62 48 44 22 358 359 56 67 67 68 60
41 40 40 39 38 38 38 37 38 35 35 34 31 33 34 34 31 28 22 20 24 18 13 11 11 17 12 5 26 48 55 60 55 56 51 42 40 31 30 23 49 46 32 29 354 11 38 43 75 101 95 90 80 74 61 38 30 54 66 75 75 78 78
43 40 38 39 38 37 35 34 38 34 37 34 32 35 35 34 31 31 30 28 25 23 21 11 17 17 12 9 17 34 45 56 57 58 54 54 49 39 29 19 32 34 37 27 5 25 35 70 44 58 91 86 85 79 78 65 55 65 78 84 90 92 89
42 40 38 38 38 37 37 38 38 34 40 38 35 31 34 35 36 34 33 31 21 21 20 16 19 16 17 16 14 38 42 60 61 55 55 51 57 52 35 31 35 39 33 16 31 36 28 52 51 38 63 81 80 84 91 94 77 74 86 94 94 93 85
43 45 42 39 36 34 29 31 43 38 41 47 45 41 36 38 38 37 32 32 27 23 16 22 20 20 22 20 17 29 29 40 45 39 39 41 42 42 36 33 31 37 55 44 42 42 41 46 55 41 64 75 71 65 55 66 91 105 109 84 70 70 64
46 45 46 44 42 40 34 31 28 34 35 38 45 44 41 41 43 40 36 33 35 28 27 29 24 24 26 24 19 24 28 36 40 37 39 32 35 41 36 33 27 25 44 51 48 44 44 43 56 52 53 59 63 64 58 57 46 67 69 74 75 64 69
44 44 44 44 46 46 43 41 39 41 41 41 45 46 45 45 44 40 35 33 34 34 31 25 25 27 29 30 27 25 29 30 34 44 44 39 33 36 32 29 27 25 39 46 51 49 49 46 51 58 51 57 27 46 59 63 48 49 61 57 58 57 69
47 48 41 39 37 40 38 40 40 42 44 44 47 50 50 49 51 48 42 35 30 27 28 30 22 24 27 30 33 34 34 25 20 49 50 48 37 32 26 23 31 27 40 45 48 48 48 49 45 51 45 46 42 48 53 50 47 44 43 38 50 63 66
55 49 45 41 40 35 31 31 29 31 36 40 41 46 47 46 49 52 53 43 36 28 21 23 25 23 20 28 31 34 39 40 33 45 50 49 40 31 23 29 26 26 37 40 43 44 44 45 48 42 40 39 39 38 46 47 47 49 53 55 54 51 50
51 57 50 42 39 36 28 25 27 25 29 30 31 36 37 37 40 43 43 44 42 36 30 24 20 20 18 20 31 32 34 38 44 50 51 54 40 30 26 31 33 28 26 30 37 43 44 45 47 41 39 37 36 37 41 39 39 42 49 60 62 62 61